Time,TemperatureF,DewpointF,PressureIn,WindDirection,WindDirectionDegrees,WindSpeedMPH,WindSpeedGustMPH,Humidity,HourlyPrecipIn,Conditions,Clouds,dailyrainin,SoftwareType,DateUTC
2013-01-28 00:03:00,51.0,-99.9,30.05,SSW,203,0.0,0.0,-999,0.00,,,0.03,,2013-01-28 07:03:00,
2013-01-28 00:11:00,51.0,-99.9,30.05,SSW,203,0.0,0.0,-999,0.00,,,0.03,,2013-01-28 07:11:00,
2013-01-28 00:22:00,51.0,-99.9,30.05,SSW,203,0.0,0.0,-999,0.00,,,0.03,,2013-01-28 07:22:00,
2013-01-28 00:32:00,52.0,-99.9,30.05,SSE,165,0.0,6.0,-999,0.00,,,0.03,,2013-01-28 07:32:00,
2013-01-28 00:42:00,52.0,-99.9,30.05,SSE,165,0.0,6.0,-999,0.00,,,0.03,,2013-01-28 07:42:00,
2013-01-28 00:52:00,52.0,-99.9,30.05,South,184,4.0,0.0,-999,0.00,,,0.03,,2013-01-28 07:52:00,
2013-01-28 01:01:00,53.0,-99.9,30.05,SW,226,4.0,12.0,-999,0.00,,,0.03,,2013-01-28 08:01:00,
2013-01-28 01:11:00,52.0,-99.9,30.05,SW,234,0.0,0.0,-999,0.00,,,0.01,,2013-01-28 08:11:00,
2013-01-28 01:21:00,52.0,-99.9,30.05,SW,234,0.0,0.0,-999,0.00,,,0.01,,2013-01-28 08:21:00,
2013-01-28 01:32:00,51.0,-99.9,30.05,SW,232,0.0,0.0,-999,0.00,,,0.01,,2013-01-28 08:32:00,
2013-01-28 01:42:00,51.0,-99.9,30.05,SW,232,0.0,0.0,-999,0.00,,,0.01,,2013-01-28 08:42:00,
2013-01-28 01:53:00,50.0,-99.9,30.05,South,191,0.0,0.0,-999,0.00,,,0.01,,2013-01-28 08:53:00,
2013-01-28 02:02:00,50.0,-99.9,30.04,South,191,0.0,0.0,-999,0.00,,,0.01,,2013-01-28 09:02:00,
2013-01-28 02:12:00,50.0,-99.9,30.04,South,191,0.0,0.0,-999,0.00,,,0.01,,2013-01-28 09:12:00,
2013-01-28 02:22:00,51.0,-99.9,30.05,WSW,251,0.0,0.0,-999,0.00,,,0.01,,2013-01-28 09:22:00,
2013-01-28 02:32:00,51.0,-99.9,30.05,SW,220,4.0,9.0,-999,0.00,,,0.01,,2013-01-28 09:32:00,
2013-01-28 02:42:00,51.0,-99.9,30.05,SW,220,4.0,9.0,-999,0.00,,,0.01,,2013-01-28 09:42:00,
2013-01-28 02:52:00,51.0,-99.9,30.04,SW,232,0.0,6.0,-999,0.00,,,0.01,,2013-01-28 09:52:00,
2013-01-28 03:02:00,52.0,-99.9,30.04,SW,227,5.0,6.0,-999,0.00,,,0.01,,2013-01-28 10:02:00,
2013-01-28 03:11:00,52.0,-99.9,30.04,SW,227,5.0,6.0,-999,0.00,,,0.01,,2013-01-28 10:11:00,
2013-01-28 03:21:00,52.0,-99.9,30.04,SW,234,5.0,8.0,-999,0.00,,,0.00,,2013-01-28 10:21:00,
2013-01-28 03:32:00,52.0,-99.9,30.04,SW,227,5.0,8.0,-999,0.00,,,0.00,,2013-01-28 10:32:00,
2013-01-28 03:42:00,52.0,-99.9,30.04,SW,227,5.0,8.0,-999,0.00,,,0.00,,2013-01-28 10:42:00,
2013-01-28 03:52:00,52.0,-99.9,30.03,SSW,202,6.0,9.0,-999,0.00,,,0.00,,2013-01-28 10:52:00,
2013-01-28 04:02:00,52.0,-99.9,30.03,West,261,3.0,6.0,-999,0.00,,,0.00,,2013-01-28 11:02:00,
2013-01-28 04:11:00,52.0,-99.9,30.03,West,261,3.0,6.0,-999,0.00,,,0.00,,2013-01-28 11:11:00,
2013-01-28 04:22:00,52.0,-99.9,30.03,SW,230,2.0,5.0,-999,0.00,,,0.00,,2013-01-28 11:22:00,
2013-01-28 04:32:00,52.0,-99.9,30.02,SSW,202,4.0,5.0,-999,0.00,,,0.00,,2013-01-28 11:32:00,
2013-01-28 04:42:00,52.0,-99.9,30.02,SSW,202,4.0,5.0,-999,0.00,,,0.00,,2013-01-28 11:42:00,
2013-01-28 04:53:00,52.0,-99.9,30.02,SW,229,7.0,7.0,-999,0.00,,,0.00,,2013-01-28 11:53:00,
2013-01-28 05:03:00,52.0,-99.9,30.02,South,181,7.0,12.0,-999,0.00,,,0.00,,2013-01-28 12:03:00,
2013-01-28 05:12:00,52.0,-99.9,30.02,South,181,7.0,12.0,-999,0.00,,,0.00,,2013-01-28 12:12:00,
2013-01-28 05:23:00,52.0,-99.9,30.02,WSW,250,1.0,4.0,-999,0.00,,,0.00,,2013-01-28 12:23:00,
2013-01-28 05:33:00,52.0,-99.9,30.02,WSW,240,3.0,7.0,-999,0.00,,,0.00,,2013-01-28 12:33:00,
2013-01-28 05:42:00,52.0,-99.9,30.02,WSW,240,3.0,7.0,-999,0.00,,,0.00,,2013-01-28 12:42:00,
2013-01-28 05:53:00,51.0,-99.9,30.02,South,185,0.0,0.0,-999,0.00,,,0.00,,2013-01-28 12:53:00,
2013-01-28 06:03:00,50.0,-99.9,30.01,South,191,3.0,6.0,-999,0.00,,,0.00,,2013-01-28 13:03:00,
2013-01-28 06:12:00,50.0,-99.9,30.01,South,191,3.0,6.0,-999,0.00,,,0.00,,2013-01-28 13:12:00,
2013-01-28 06:23:00,50.0,-99.9,30.02,South,184,0.0,3.0,-999,0.00,,,0.00,,2013-01-28 13:23:00,
2013-01-28 06:33:00,50.0,-99.9,30.02,South,189,0.0,5.0,-999,0.00,,,0.00,,2013-01-28 13:33:00,
2013-01-28 06:43:00,50.0,-99.9,30.02,South,189,0.0,5.0,-999,0.00,,,0.00,,2013-01-28 13:43:00,
2013-01-28 06:53:00,50.0,-99.9,30.02,SSW,199,0.0,0.0,-999,0.00,,,0.00,,2013-01-28 13:53:00,
2013-01-28 07:03:00,50.0,-99.9,30.03,SW,225,0.0,0.0,-999,0.00,,,0.00,,2013-01-28 14:03:00,
2013-01-28 07:12:00,50.0,-99.9,30.03,SW,225,0.0,0.0,-999,0.00,,,0.00,,2013-01-28 14:12:00,
2013-01-28 07:23:00,50.0,-99.9,30.03,SW,222,0.0,0.0,-999,0.00,,,0.00,,2013-01-28 14:23:00,
2013-01-28 07:33:00,50.0,-99.9,30.04,SW,225,0.0,2.0,-999,0.00,,,0.00,,2013-01-28 14:33:00,
2013-01-28 07:43:00,50.0,-99.9,30.04,SW,225,0.0,2.0,-999,0.00,,,0.00,,2013-01-28 14:43:00,
2013-01-28 07:53:00,50.0,-99.9,30.05,SW,223,0.0,0.0,-999,0.00,,,0.00,,2013-01-28 14:53:00,
2013-01-28 08:03:00,49.0,-99.9,30.04,SSW,202,6.0,11.0,-999,0.00,,,0.00,,2013-01-28 15:03:00,
2013-01-28 08:13:00,49.0,-99.9,30.04,SSW,202,6.0,11.0,-999,0.00,,,0.00,,2013-01-28 15:13:00,
2013-01-28 08:24:00,49.0,-99.9,30.05,WSW,241,5.0,7.0,-999,0.00,,,0.00,,2013-01-28 15:24:00,
2013-01-28 08:33:00,50.0,-99.9,30.03,SW,226,0.0,0.0,-999,0.00,,,0.00,,2013-01-28 15:33:00,
2013-01-28 08:43:00,50.0,-99.9,30.03,SW,226,0.0,0.0,-999,0.00,,,0.00,,2013-01-28 15:43:00,
2013-01-28 08:54:00,50.0,-99.9,30.03,SW,216,2.0,5.0,-999,0.00,,,0.00,,2013-01-28 15:54:00,
2013-01-28 09:04:00,50.0,-99.9,30.03,South,182,1.0,7.0,-999,0.00,,,0.00,,2013-01-28 16:04:00,
2013-01-28 09:13:00,50.0,-99.9,30.03,South,182,1.0,7.0,-999,0.00,,,0.00,,2013-01-28 16:13:00,
2013-01-28 09:22:00,50.0,-99.9,30.04,West,268,4.0,7.0,-999,0.00,,,0.00,,2013-01-28 16:22:00,
2013-01-28 09:33:00,50.0,-99.9,30.04,SW,219,3.0,7.0,-999,0.00,,,0.00,,2013-01-28 16:33:00,
2013-01-28 09:43:00,50.0,-99.9,30.04,SW,219,3.0,7.0,-999,0.00,,,0.00,,2013-01-28 16:43:00,
2013-01-28 09:53:00,50.0,-99.9,30.05,West,264,3.0,6.0,-999,0.00,,,0.00,,2013-01-28 16:53:00,
2013-01-28 10:02:00,51.0,-99.9,30.04,SW,233,8.0,11.0,-999,0.00,,,0.00,,2013-01-28 17:02:00,
2013-01-28 10:12:00,51.0,-99.9,30.04,SW,233,8.0,11.0,-999,0.00,,,0.00,,2013-01-28 17:12:00,
2013-01-28 10:23:00,52.0,-99.9,30.05,SW,229,8.0,12.0,-999,0.00,,,0.00,,2013-01-28 17:23:00,
2013-01-28 10:33:00,53.0,-99.9,30.04,SW,233,3.0,5.0,-999,0.00,,,0.00,,2013-01-28 17:33:00,
2013-01-28 10:42:00,53.0,-99.9,30.04,SW,233,3.0,5.0,-999,0.00,,,0.00,,2013-01-28 17:42:00,
2013-01-28 10:53:00,53.0,-99.9,30.03,SW,232,0.0,0.0,-999,0.00,,,0.00,,2013-01-28 17:53:00,
2013-01-28 11:03:00,52.0,-99.9,30.04,WSW,241,8.0,17.0,-999,0.00,,,0.00,,2013-01-28 18:03:00,
2013-01-28 11:13:00,52.0,-99.9,30.04,WSW,241,8.0,17.0,-999,0.00,,,0.00,,2013-01-28 18:13:00,
2013-01-28 11:23:00,51.0,-99.9,30.05,WSW,250,5.0,9.0,-999,0.00,,,0.00,,2013-01-28 18:23:00,
2013-01-28 11:33:00,51.0,-99.9,30.05,SW,229,5.0,5.0,-999,0.00,,,0.00,,2013-01-28 18:33:00,
2013-01-28 11:43:00,51.0,-99.9,30.05,SW,229,5.0,5.0,-999,0.00,,,0.00,,2013-01-28 18:43:00,
2013-01-28 11:53:00,52.0,-99.9,30.03,West,279,6.0,6.0,-999,0.00,,,0.00,,2013-01-28 18:53:00,
2013-01-28 12:03:00,53.0,-99.9,30.02,WSW,247,5.0,5.0,-999,0.00,,,0.00,,2013-01-28 19:03:00,
2013-01-28 12:13:00,52.0,-99.9,30.02,West,279,6.0,6.0,-999,0.00,,,0.00,,2013-01-28 19:13:00,
2013-01-28 12:23:00,52.0,-99.9,30.02,West,279,6.0,6.0,-999,0.00,,,0.00,,2013-01-28 19:23:00,
2013-01-28 12:33:00,52.0,-99.9,30.02,SW,234,7.0,9.0,-999,0.00,,,0.00,,2013-01-28 19:33:00,
2013-01-28 12:43:00,52.0,-99.9,30.02,SW,234,7.0,9.0,-999,0.00,,,0.00,,2013-01-28 19:43:00,
2013-01-28 12:53:00,53.0,-99.9,30.02,SW,219,7.0,12.0,-999,0.00,,,0.00,,2013-01-28 19:53:00,
2013-01-28 13:03:00,54.0,-99.9,30.01,WSW,237,10.0,17.0,-999,0.00,,,0.00,,2013-01-28 20:03:00,
2013-01-28 13:12:00,54.0,-99.9,30.01,WSW,237,10.0,17.0,-999,0.00,,,0.00,,2013-01-28 20:12:00,
2013-01-28 13:22:00,53.0,-99.9,30.01,WSW,254,7.0,10.0,-999,0.00,,,0.00,,2013-01-28 20:22:00,
2013-01-28 13:33:00,55.0,-99.9,29.99,SW,229,6.0,17.0,-999,0.00,,,0.00,,2013-01-28 20:33:00,
2013-01-28 13:43:00,55.0,-99.9,29.99,SW,229,6.0,17.0,-999,0.00,,,0.00,,2013-01-28 20:43:00,
2013-01-28 13:53:00,56.0,-99.9,29.98,WSW,243,7.0,10.0,-999,0.00,,,0.00,,2013-01-28 20:53:00,
2013-01-28 14:03:00,54.0,-99.9,29.99,WSW,255,5.0,9.0,-999,0.00,,,0.00,,2013-01-28 21:03:00,
2013-01-28 14:12:00,54.0,-99.9,29.99,WSW,255,5.0,9.0,-999,0.00,,,0.00,,2013-01-28 21:12:00,
2013-01-28 14:23:00,53.0,-99.9,29.99,SW,229,7.0,11.0,-999,0.00,,,0.00,,2013-01-28 21:23:00,
2013-01-28 14:34:00,54.0,-99.9,29.98,WSW,251,14.0,19.0,-999,0.00,,,0.00,,2013-01-28 21:34:00,
2013-01-28 14:43:00,54.0,-99.9,29.98,WSW,251,14.0,19.0,-999,0.00,,,0.00,,2013-01-28 21:43:00,
2013-01-28 14:53:00,54.0,-99.9,29.98,West,267,6.0,9.0,-999,0.00,,,0.00,,2013-01-28 21:53:00,
2013-01-28 15:02:00,51.0,-99.9,29.99,West,260,2.0,9.0,-999,0.00,,,0.00,,2013-01-28 22:02:00,
2013-01-28 15:12:00,51.0,-99.9,29.99,West,260,2.0,9.0,-999,0.00,,,0.00,,2013-01-28 22:12:00,
2013-01-28 15:23:00,51.0,-99.9,29.99,West,272,4.0,9.0,-999,0.00,,,0.00,,2013-01-28 22:23:00,
2013-01-28 15:33:00,50.0,-99.9,30.00,WNW,299,5.0,9.0,-999,0.00,,,0.00,,2013-01-28 22:33:00,
2013-01-28 15:42:00,50.0,-99.9,30.00,WNW,299,5.0,9.0,-999,0.00,,,0.00,,2013-01-28 22:42:00,
2013-01-28 15:53:00,47.0,-99.9,30.00,NNW,331,6.0,11.0,-999,0.00,,,0.00,,2013-01-28 22:53:00,
2013-01-28 16:03:00,46.0,-99.9,30.01,West,277,6.0,8.0,-999,0.00,,,0.00,,2013-01-28 23:03:00,
2013-01-28 16:12:00,46.0,-99.9,30.01,West,277,6.0,8.0,-999,0.00,,,0.00,,2013-01-28 23:12:00,
2013-01-28 16:22:00,45.0,-99.9,30.00,West,265,6.0,9.0,-999,0.00,,,0.00,,2013-01-28 23:22:00,
2013-01-28 16:33:00,43.0,-99.9,30.01,West,267,7.0,10.0,-999,0.00,,,0.00,,2013-01-28 23:33:00,
2013-01-28 16:42:00,43.0,-99.9,30.01,West,267,7.0,10.0,-999,0.00,,,0.00,,2013-01-28 23:42:00,
2013-01-28 16:53:00,41.0,-99.9,30.01,WNW,284,6.0,10.0,-999,0.00,,,0.00,,2013-01-28 23:53:00,
2013-01-28 17:02:00,41.0,-99.9,30.01,WNW,296,1.0,5.0,-999,0.00,,,0.00,,2013-01-29 00:02:00,
2013-01-28 17:12:00,41.0,-99.9,30.01,WNW,296,1.0,5.0,-999,0.00,,,0.00,,2013-01-29 00:12:00,
2013-01-28 17:22:00,41.0,-99.9,30.02,NW,324,4.0,7.0,-999,0.00,,,0.00,,2013-01-29 00:22:00,
2013-01-28 17:33:00,41.0,-99.9,30.02,West,260,6.0,8.0,-999,0.00,,,0.00,,2013-01-29 00:33:00,
2013-01-28 17:42:00,41.0,-99.9,30.02,West,260,6.0,8.0,-999,0.00,,,0.00,,2013-01-29 00:42:00,
2013-01-28 17:52:00,41.0,-99.9,30.02,WSW,257,6.0,10.0,-999,0.00,,,0.00,,2013-01-29 00:52:00,
2013-01-28 18:02:00,40.0,-99.9,30.02,West,274,3.0,7.0,-999,0.00,,,0.00,,2013-01-29 01:02:00,
2013-01-28 18:12:00,40.0,-99.9,30.02,West,274,3.0,7.0,-999,0.00,,,0.00,,2013-01-29 01:12:00,
2013-01-28 18:23:00,39.0,-99.9,30.02,WSW,253,1.0,6.0,-999,0.00,,,0.00,,2013-01-29 01:23:00,
2013-01-28 18:32:00,40.0,-99.9,30.03,SW,233,5.0,8.0,-999,0.00,,,0.00,,2013-01-29 01:32:00,
2013-01-28 18:42:00,40.0,-99.9,30.03,SW,233,5.0,8.0,-999,0.00,,,0.00,,2013-01-29 01:42:00,
2013-01-28 18:53:00,40.0,-99.9,30.03,WSW,247,0.0,0.0,-999,0.00,,,0.00,,2013-01-29 01:53:00,
2013-01-28 19:02:00,40.0,-99.9,30.03,SW,225,2.0,4.0,-999,0.00,,,0.00,,2013-01-29 02:02:00,
2013-01-28 19:12:00,40.0,-99.9,30.03,SW,225,2.0,4.0,-999,0.00,,,0.00,,2013-01-29 02:12:00,
2013-01-28 19:22:00,40.0,-99.9,30.03,West,271,0.0,1.0,-999,0.00,,,0.00,,2013-01-29 02:22:00,
2013-01-28 19:33:00,40.0,-99.9,30.05,WSW,244,0.0,3.0,-999,0.00,,,0.00,,2013-01-29 02:33:00,
2013-01-28 19:42:00,40.0,-99.9,30.05,WSW,244,0.0,3.0,-999,0.00,,,0.00,,2013-01-29 02:42:00,
2013-01-28 19:53:00,39.0,-99.9,30.05,WNW,299,4.0,4.0,-999,0.00,,,0.00,,2013-01-29 02:53:00,
2013-01-28 20:03:00,38.0,-99.9,30.05,SSW,213,2.0,3.0,-999,0.00,,,0.00,,2013-01-29 03:03:00,
2013-01-28 20:12:00,38.0,-99.9,30.05,SSW,213,2.0,3.0,-999,0.00,,,0.00,,2013-01-29 03:12:00,
2013-01-28 20:22:00,38.0,-99.9,30.05,West,281,0.0,3.0,-999,0.01,,,0.01,,2013-01-29 03:22:00,
2013-01-28 20:32:00,38.0,-99.9,30.05,West,279,1.0,4.0,-999,0.01,,,0.01,,2013-01-29 03:32:00,
2013-01-28 20:42:00,38.0,-99.9,30.05,West,279,1.0,4.0,-999,0.01,,,0.01,,2013-01-29 03:42:00,
2013-01-28 20:53:00,37.0,-99.9,30.05,WSW,247,4.0,6.0,-999,0.01,,,0.01,,2013-01-29 03:53:00,
2013-01-28 21:03:00,37.0,-99.9,30.05,West,271,3.0,6.0,-999,0.01,,,0.01,,2013-01-29 04:03:00,
2013-01-28 21:12:00,37.0,-99.9,30.05,West,271,3.0,6.0,-999,0.01,,,0.01,,2013-01-29 04:12:00,
2013-01-28 21:22:00,38.0,-99.9,30.05,West,274,1.0,5.0,-999,0.00,,,0.01,,2013-01-29 04:22:00,
2013-01-28 21:32:00,38.0,-99.9,30.05,West,268,1.0,3.0,-999,0.00,,,0.01,,2013-01-29 04:32:00,
2013-01-28 21:42:00,38.0,-99.9,30.05,West,268,1.0,3.0,-999,0.00,,,0.01,,2013-01-29 04:42:00,
2013-01-28 21:52:00,38.0,-99.9,30.05,NW,316,0.0,0.0,-999,0.00,,,0.01,,2013-01-29 04:52:00,
2013-01-28 22:04:00,38.0,-99.9,30.05,WNW,300,0.0,0.0,-999,0.00,,,0.01,,2013-01-29 05:04:00,
2013-01-28 22:12:00,38.0,-99.9,30.05,WNW,300,0.0,0.0,-999,0.00,,,0.01,,2013-01-29 05:12:00,
2013-01-28 22:22:00,39.0,-99.9,30.05,WNW,300,0.0,0.0,-999,0.00,,,0.01,,2013-01-29 05:22:00,
2013-01-28 22:32:00,39.0,-99.9,30.05,WSW,248,0.0,0.0,-999,0.00,,,0.01,,2013-01-29 05:32:00,
2013-01-28 22:43:00,39.0,-99.9,30.05,WSW,248,0.0,0.0,-999,0.00,,,0.01,,2013-01-29 05:43:00,
2013-01-28 22:52:00,39.0,-99.9,30.05,WNW,291,0.0,4.0,-999,0.00,,,0.01,,2013-01-29 05:52:00,
2013-01-28 23:02:00,39.0,-99.9,30.05,WNW,291,0.0,0.0,-999,0.00,,,0.01,,2013-01-29 06:02:00,
2013-01-28 23:11:00,39.0,-99.9,30.05,WNW,291,0.0,0.0,-999,0.00,,,0.01,,2013-01-29 06:11:00,
2013-01-28 23:22:00,38.0,-99.9,30.05,NW,312,3.0,5.0,-999,0.00,,,0.01,,2013-01-29 06:22:00,
2013-01-28 23:32:00,38.0,-99.9,30.05,NW,317,0.0,0.0,-999,0.00,,,0.01,,2013-01-29 06:32:00,
2013-01-28 23:42:00,38.0,-99.9,30.05,NW,317,0.0,0.0,-999,0.00,,,0.01,,2013-01-29 06:42:00,
2013-01-28 23:52:00,37.0,-99.9,30.05,WSW,258,3.0,6.0,-999,0.00,,,0.01,,2013-01-29 06:52:00,